Home   Weather   Nürburg   Past weeks

Flag for Germany Past Weather in Nürburg, Rhineland-Palatinate, Germany — Yesterday and Last 2 Weeks

Now
20 °F

Fog.


Feels Like: 20 °F
Forecast: 17 / 29 °F
Wind: 2 mph from Southwest

Location: Nuerburg-Barweiler

Current Time: Jan 23, 2017 at 1:51:00 am

Latest Report: Jan 23, 2017 at 12:00 am


Visibility: 2 mi

Pressure: 30.37 "Hg (28.11 "Hg at 601m altitude)

Humidity: 96%

Dew Point: 19 °F

Location of NürburgLocation

Past Weather in Nürburg — Graph

°F

Nürburg Temperature Yesterday

Maximum temperature yesterday: 31 °F (at 3:00 pm)
Minimum temperature yesterday: 15 °F (at 6:00 am)
Average temperature yesterday: 23 °F

High & Low Weather Summary for the Past Weeks

 TemperatureHumidityPressure
High40 °F (Jan 11, 5:00 pm)100% (Jan 8, 12:00 am)30.72 "Hg (Jan 8, 12:00 am)
Low14 °F (Jan 18, 8:00 am)39% (Jan 20, 2:00 pm)29.00 "Hg (Jan 13, 2:00 am)
Average28 °F87%30.23 "Hg
* Reported Jan 8 12:00 am — Jan 23 12:00 am, Nürburg, Weather by CustomWeather, © 2017

Note: Actual official high and low records may vary slightly from our data, if they occured in-between our weather recording intervals... More about our weather records

Advertising

Nürburg Weather History for the Previous 24 Hours

Scroll right to see more
 ConditionsComfort  
Time TempWeatherWind HumidityBarometerVisibility
12:00 am
Mon, Jan 23
20 °FFog.2 mph96%30.37 "Hg2 mi
11:00 pm
Sun, Jan 22
21 °FFog.1 mph94%30.35 "Hg2 mi
9:00 pm24 °FFog.5 mph88%30.34 "Hg3 mi
8:00 pm24 °FClear.3 mph85%30.34 "Hg4 mi
6:00 pm27 °FClear.3 mph76%30.31 "Hg9 mi
5:00 pm29 °FSunny.3 mph68%30.30 "Hg9 mi
3:00 pm31 °FSunny.2 mph61%30.29 "Hg11 mi
2:00 pm29 °FSunny.1 mph63%30.31 "Hg7 mi
12:00 pm26 °FSunny.1 mph66%30.34 "Hg7 mi
11:00 am23 °FSunny.2 mph74%30.37 "Hg6 mi
9:00 am16 °FSunny.1 mph96%30.39 "Hg4 mi
8:00 am16 °FClear.No wind96%30.39 "Hg4 mi
6:00 am15 °FFog.2 mph95%30.41 "Hg4 mi
5:00 am17 °FClear.1 mph93%30.40 "Hg6 mi
3:00 am20 °FClear.2 mph85%30.40 "Hg7 mi
2:00 am20 °FClear.1 mph83%30.41 "Hg7 mi
Weather by CustomWeather, © 2017

See weather overviewHow to use our weather pages